Starlink 34417

operational
NORAD ID: 64617 Int'l Des: 2025-137 Owner: SPXS Country: US Constellation: starlink
LEOCIRCULAR

About Starlink 34417

Description loading...

Live Position

Loading 3D Globe...

Upcoming Passes

Altitude History

Altitude vs Time

uPlot chart will show altitude changes over time

Two-Line Element Set

1 64617U 25137Z 25312.64673377 .00057514 00000-0 14348-2 0 9992
2 64617 53.1575 169.3670 0001004 81.5307 278.5812 15.39667712 22412
Epoch: Nov 8, 2025 • Age: 61 hours

Current Status

Altitude 451.3 km
Velocity 7.64 km/s
Sub-Earth Point -17.80°S, 30.39°E
Launch Date Jun 25, 2025
Age 0.3 years
Type internet

Technical Details

Classification Payload
Mass 575.00 kg
Dry Mass 530.00 kg
Total Mass 575.00 kg
Length 0.30 m
Diameter 4.10 m
Span 29.00 m
Shape Box + pan
Manufacturer SPXS
Bus Type Starlink V2MO
Phase Status In Orbit
Owner/State SPXS/US

Large Constellations

Loading constellations...